Weather Service Report


137 
ASUS46 KLOX 232013
RWRCA 

SOUTHERN CALIFORNIA WEATHER ROUNDUP
NATIONAL WEATHER SERVICE OXNARD CALIFORNIA
1200 PM PST THU FEB 23 2017

NOTE: "FAIR" INDICATES FEW OR NO CLOUDS BELOW 12,000 FEET WITH NO 
SIGNIFICANT WEATHER AND/OR OBSTRUCTIONS TO VISIBILITY.

  -  STATIONS PRECEEDED BY AN ASTERISK (*) ARE NOT NWS OR FAA 
     STATIONS AND ARE NOT SUBJECT TO NWS AND FAA QUALITY CONTROL.

CAZ041-042-087-232100-
LA AND ORANGE COUNTY COASTAL AREAS

  
CITY           SKY/WX    TMP DP  RH WIND       PRES   REMARKS
L.A. DOWNTOWN  SUNNY     61  22  22 VRB7      30.05F                  
L.A. AIRPORT   MOSUNNY   59  25  27 NW13G26   30.08F                  
LONG BEACH       N/A    N/A N/A N/A MISG      30.06F                  

CITY           SKY/WX    TMP DP  RH WIND       PRES   REMARKS
AVALON           N/A     55 N/A N/A MISG        N/A                   
FULLERTON      SUNNY     61  28  28 MISG      30.04F                  
*GETTY CENTER    N/A    N/A N/A N/A N12G26      N/A                   
HAWTHORNE      SUNNY     60  21  22 NW12G18   30.08F                  
*LEO CARRILLO    N/A     58  35  41 W13         N/A                   
*LOS ALAMITOS  SUNNY     60  27  28 W14G22    30.05F                  
*REDONDO BEACH   N/A     59  28  30 W1        30.07F                  
SANTA ANA      MOSUNNY   59  23  25 W7G20     30.06F                  
STA MONICA APT SUNNY     57  21  24 N9G21     30.08F                  
TORRANCE       SUNNY     57  30  35 NW17G25   30.08F                  
*UCLA            N/A     55  19  24 NW13      30.04F                  

$$

CAZ547-548-048-232100-
LA COUNTY VALLEYS AND INLAND EMPIRE

  
CITY           SKY/WX    TMP DP  RH WIND       PRES   REMARKS
BURBANK        SUNNY     55  20  25 N17       30.06F                  
VAN NUYS       SUNNY     54  23  30 N16G33    30.07F                  

CITY           SKY/WX    TMP DP  RH WIND       PRES   REMARKS
CORONA AIRPORT CLEAR     58  27  30 VRB7G16   30.05F                  
CHINO          MOSUNNY   58  32  37 VRB3      30.05F                  
*CLAREMONT       N/A     55  31  40 S2          N/A                   
MARCH AFB      SUNNY     54  26  33 VRB5      30.02F                  
*NORTHRIDGE      N/A     54  21  28 NW7G16      N/A                   
ONTARIO        MOSUNNY   55  30  38 S7        30.04F                  
*PASADENA        N/A     59  30  33 E2          N/A                   
POMONA         SUNNY     54  32  43 NW7       30.06F                  
RIVERSIDE      SUNNY     56  29  35 W8        30.04F                  
SAN BERNARDINO SUNNY     57  28  33 SW9       30.03F                  
*SAN GABRIEL     N/A     58  29  32 W3        30.12F                  
*SAN RAFAEL HI   N/A     55  25  31 N12G23      N/A                   
*WHITEMAN AP   SUNNY     54  19  26 NW16G26   30.10                   
*WHITTIER HILL   N/A     57  28  33 W5          N/A                   
*WOODLAND HILL   N/A     54  25  32 VRB10G21    N/A                   

$$

CAZ054-055-232100-
LA AND SAN BERNARDINO COUNTY MOUNTAINS

  
CITY           SKY/WX    TMP DP  RH WIND       PRES   REMARKS
*ACTON           N/A     46  24  42 N7          N/A                   
*BIG BEAR AIRP CLEAR     34  -2  21 W10G25    29.93F WCI  26          
*BIG PINES       N/A     34  10  36 W3          N/A                   
*CHILAO          N/A     35  13  39 N15         N/A  WCI  25          
SANDBERG       CLOUDY    33  25  72 N29G38    30.04F WCI  19          
*WARM SPRINGS    N/A     36  22  57 N15G30      N/A  WCI  27          

$$

CAZ028-029-059-060-099-232100-
ANTELOPE VALLEY AND SURROUNDING AREAS

  
CITY           SKY/WX    TMP DP  RH WIND       PRES   REMARKS
LANCASTER      MOSUNNY   47  25  42 NW21G26   30.08F                  
PALMDALE       SUNNY     45  25  45 W18G26    30.08S                  
*POPPY PARK      N/A     41  27  56 W21G35      N/A  WCI  32          

CITY           SKY/WX    TMP DP  RH WIND       PRES   REMARKS
29 PALMS       SUNNY     52  13  21 NW20G25   30.06F                  
BARSTOW/DAGGET SUNNY     51  18  27 W17       30.03F                  
BISHOP         MOSUNNY   44   5  20 NE14G22   29.98F                  
CHINA LAKE     SUNNY     53   5  14 N5        30.00F                  
EDWARDS AFB    MOSUNNY   45  20  37 W30G40    30.01F                  
MOJAVE         SUNNY     43  25  49 W30G38    30.05S WCI  32          
NEEDLES        SUNNY     61  19  19 N3        29.95F                  
VICTORVILLE    MOSUNNY   45  16  31 W17G26    30.03F                  

$$

CAZ039-040-232100-
VENTURA AND SANTA BARBARA COUNTY COAST

  
CITY           SKY/WX    TMP DP  RH WIND       PRES   REMARKS
CAMARILLO      SUNNY     58  33  39 CALM      30.09F                  
NWS OXNARD       N/A     57  28  32 CALM      30.08F                  
OXNARD AIRPORT SUNNY     58  34  40 W16       30.09F                  
*POINT MUGU    MOSUNNY   57  34  41 NW8       30.10F                  
SBA APT/GOLETA SUNNY     57  24  28 N12G21    30.09F                  
*SANTA BARBARA   N/A     62  17  17 CALM      30.15F                  
*VENTURA         N/A     58  34  41 W7        30.07F                  

$$

CAZ044-045-232100-
VENTURA COUNTY VALLEYS

  
CITY           SKY/WX    TMP DP  RH WIND       PRES   REMARKS
*SIMI VALLEY     N/A     52  33  46 E5        30.08F                  
*WESTLAKE VILL   N/A     55  33  44 N1        30.09F                  
*OJAI            N/A     58  31  36 CALM      30.03F                  

$$

CAZ053-232100-
VENTURA COUNTY MOUNTAINS

  
CITY           SKY/WX    TMP DP  RH WIND       PRES   REMARKS
*LOCKWOOD VLY    N/A     37  16  41 NW2         N/A                   
*FRAZIER MTN     N/A     16   9  73 CALM      29.70F                  
*ROSE VALLEY     N/A     46  16  29 MISG        N/A                   

$$

CAZ034-035-036-232100-
CENTRAL COAST AND SANTA YNEZ VALLEY

  
CITY           SKY/WX    TMP DP  RH WIND       PRES   REMARKS
SAN LUIS OBISP SUNNY     58  33  39 N12       30.18F                  
SANTA MARIA    MOSUNNY   54  35  48 N14G21    30.19F                  

CITY           SKY/WX    TMP DP  RH WIND       PRES   REMARKS
*CAL POLY SLO    N/A     54  36  50 N12         N/A                   
*LOMPOC          N/A     54  33  45 N16G23    30.16                   
*PISMO BEACH     N/A     56  34  42 NE5       30.19F                  
*SANTA YNEZ    FAIR      52  28  40 NW15G24   30.13F                  

$$

CAZ037-038-051-232100-
SAN LUIS OBISPO COUNTY INTERIOR AND CUYAMA VALLEY

  
CITY           SKY/WX    TMP DP  RH WIND       PRES   REMARKS
*CUYAMA          N/A     42  29  59 CALM      30.15F                  
PASO ROBLES    SUNNY     50  31  48 NW20G30   30.17F                  

$$

CAZ032-033-061-232100-
SOUTHERN DESERTS

  
CITY           SKY/WX    TMP DP  RH WIND       PRES   REMARKS
BLYTHE         SUNNY     62  18  18 NW14G30   29.97F                  
IMPERIAL         N/A     64  30  27 NW8       29.98F                  
PALM SPRINGS   SUNNY     63  30  28 NW17G26   29.99F                  
THERMAL        SUNNY     65  27  23 N8        29.96F                  

$$

ELSEWHERE ACROSS THE WESTERN UNITED STATES AND MEXICO

  
CITY           SKY/WX    TMP DP  RH WIND       PRES   REMARKS
DEATH VALLEY,    N/A     63  11  13 E2          N/A                   
DENVER, CO     FLURRIES  30  26  85 NE14      29.54R WCI  19          
GRAND CANYON,  CLOUDY    32  11  41 W10G28    29.82F WCI  24          
HONOLULU, HI   MOSUNNY   77  55  47 NE14      30.20R                  
KAHULUI, MAUI  MOSUNNY   75  57  53 E15       30.20R                  
LAKE TAHOE, CA PTSUNNY   23   9  55 CALM      29.97F                  
LAS VEGAS, NV  MOSUNNY   53   8  16 N8        29.93F                  
MAMMOTH LAKES, FAIR      27  -1  29 NW14      29.94S WCI  16          
MEXICO CITY, M MOSUNNY   77  30  18 SW3       30.15F                  
PHOENIX, AZ    MOSUNNY   61  26  26 SW14G20   29.91F                  
PORTLAND, OR   PTSUNNY   41  33  73 NE3       30.28F                  
RENO, NV       PTSUNNY   33  18  53 N15G22    30.05S WCI  23          
SALT LAKE CITY CLOUDY    31  24  75 W14       29.81S WCI  21          
SAN DIEGO, CA  MOSUNNY   61  33  35 NW13      30.10S                  
SAN FRANCISCO, MOSUNNY   51  33  50 N9G21     30.23F                  
SAN JOSE, CA   MOSUNNY   51  31  46 NW12      30.23F                  
SEATTLE, WA    PTSUNNY   38  34  85 N5        30.26F WCI  34          
TIJUANA, MEX   MOSUNNY   57  36  44 NW14      30.09F                  

$$
  
STATION/POSITION TIME  TEMP    WIND        PRES    VSBY  WAVE
                       AIR SEA DIR/SP/G                  HT/PER
                 (UTC) (F)     (DEG/KT/KT) (MB)    (MI)  (FT/S)
POINT ARGUELLO B NOT AVBL
WEST SANTA BARBA 1950   52 55  340/ 23/ 27 1021.5F        10/ 9
POINT CONCEPTION NOT AVBL
EAST SANTA BARBA 1950          290/ 21/ 25 1020.3F
SANTA MONICA BAY 2000   53 58  320/ 16/ 21 1019.1

Return to Home page


Western Regional Climate Center, wrcc@dri.edu